FLYING LAPTOP (42831 NORAD) Tracking and Keplerian Element Data

This shows tracking and keplerian element data for the satellite.

Feedback or suggestion? Click here.




ElementValue
Catalog42831
NameFLYING LAPTOP
Epoch Orbit41182
Epoch Day35.16452637
Epoch Year2025
RAAN209.1982
Inclination97.3934
Eccentricity0.0012756
Argument of Perigee22.9143
Mean Anonmoly337.2647
Mean Motion14.9767485
Decay Rate5.661E-05
L11 42831U 17042G 25035.16452637 .00005661 00000+0 48728-3 0 9990
L22 42831 97.3934 209.1982 0012756 22.9143 337.2647 14.97674850411827



Live tracking and technical data element details for FLYING LAPTOP (NORAD 42831). FLYING LAPTOP can be tracked NOW for your location showing map with azimuth and elevation plus other details from your city location.







IsCatalogInMostPopularTable: catalog: 42831, numindb: 763
Update: records affected: 1



GetName: 42831 FLYING LAPTOP

Hit Count: updated at: Sat, 17 May 2025 06:04:03 GMT